World > North America > United States > Nebraska

McPherson County, Nebraska Regional Weather

Lat: 41.56N, Lon: 101.05W
Wx Zone: NEZ036Web Search

Helpful Tip: You can add this page to Bookmarks by pressing the Ctrl key & d key at the same time. Mac users press command & d.

Feedback


°F Click to change McPherson County hourly weather to Imperial units.Click to change McPherson County hourly weather to Metric units. °C
Mcpherson County Weather Map
UTC Time: 4/14/2021, 14:26
Your Time:

McPherson County, NE Regional Weather

Expires:202104141500;;541753
ASUS43 KOAX 141410
RWRNE 

WEATHER ROUNDUP FOR NEBRASKA
NATIONAL WEATHER SERVICE OMAHA NE
900 AM CDT WED APR 14 2021

NOTES: SATELLITE DATA IS BEING USED TO AUGMENT CLOUD COVER ABOVE
       12000 FEET.
       "FAIR" INDICATES FEW OR NO CLOUDS BELOW 12,000 FEET WITH NO
       SIGNIFICANT WEATHER AND/OR OBSTRUCTIONS TO VISIBILITY.

   

NEZ005>010-023>029-035>040-094-141500-
NORTH CENTRAL NEBRASKA
  
CITY           SKY/WX    TMP DP  RH WIND       PRES   REMARKS
VALENTINE      MOSUNNY   29  20  69 NW9       30.33R WCI  20          
AINSWORTH      SUNNY     28  19  68 NW13G22   30.32R WCI  18          
BROKEN BOW     SUNNY     32  21  64 NW12      30.32R WCI  23          
O'NEILL        SUNNY     32  20  63 NW14G21   30.31R WCI  22          
ORD            SUNNY     33  22  63 NW14      30.32R WCI  23          
THEDFORD       CLOUDY    31  22  69 NW8       30.33S WCI  23          
$$
 

SKY/WX - Weather  TMP - Temperature  DP - Dew Point  RH - Relative Humidity
WIND - Wind Direction/Speed PRES - Barometric Pressure VSB - Visibility
WCI - Wind Chill Index E13G22 Wind - East Wind 13 mph/Gusts of 22 mph